contact:dominique.lefevre@mio.osupytheas.fr, maurice.libes@osupytheas.fr
Project:EMSO Ligure-ouest http://www.emso-fr.org/EMSO-France
Sensor Aquadopp, line 13 Serial AQD14315 
DOI : "https://doi.org/10.17882/74513; https://doi.org/10.17882/83244" 
Title:EMSO Ligure Ouest : Data ligne ALBATROSS capteur AQUADOPP - deploiement 2021
Id,Date,Profondeur,Latitude,Longitude,X_East,Y_North,Z_Up,Amplitude_X,Amplitude_Y,Amplitude_Z,Batterie,SoundSpeed,Heading,Pitch,Roll,Pressure,Temperature,Speed,Direction
, , m, degrees North, degrees East, m.s-1, m.s-1,m.s-1, 1, 1, 1, Volt, m.s-1, degree, degree, degree, dbar, degree_C, m.s-1, degree
13,2022-10-26T23:30:00,2400.0,42.79,6.0312,0.011,0.013,0.004,69.0,61.0,63.0,12.8,1504.9,195.9,0.0,-0.2,2393.059,13.34,0.017,40.2
13,2022-10-27T00:00:00,2400.0,42.79,6.0312,0.005,0.005,0.01,69.0,63.0,63.0,12.8,1504.9,193.9,0.1,-0.2,2393.013,13.34,0.007,45.0
13,2022-10-27T00:30:00,2400.0,42.79,6.0312,0.008,0.011,-0.004,66.0,61.0,63.0,12.8,1504.9,194.6,0.1,-0.1,2392.975,13.34,0.013,36.0
13,2022-10-27T01:00:00,2400.0,42.79,6.0312,0.0,0.01,-0.023,66.0,61.0,62.0,12.7,1504.9,196.0,0.1,0.0,2393.021,13.34,0.01,0.0
13,2022-10-27T01:30:00,2400.0,42.79,6.0312,0.002,0.0,-0.016,68.0,61.0,61.0,12.8,1504.9,201.8,0.1,-0.1,2392.999,13.34,0.002,90.0
13,2022-10-27T02:00:00,2400.0,42.79,6.0312,-0.005,0.029,-0.002,68.0,63.0,64.0,12.7,1504.9,203.9,0.1,-0.1,2392.975,13.34,0.029,350.2
13,2022-10-27T02:30:00,2400.0,42.79,6.0312,-0.013,0.021,0.001,68.0,62.0,60.0,12.8,1504.9,210.6,0.0,-0.2,2392.966,13.34,0.024,328.2
13,2022-10-27T03:00:00,2400.0,42.79,6.0312,-0.006,0.024,0.014,65.0,59.0,64.0,12.8,1504.9,217.4,-0.1,-0.2,2392.97,13.34,0.024,346.0
13,2022-10-27T03:30:00,2400.0,42.79,6.0312,-0.029,0.023,-0.043,65.0,58.0,62.0,12.8,1504.9,225.5,0.1,-0.1,2392.954,13.34,0.037,308.4
13,2022-10-27T04:00:00,2400.0,42.79,6.0312,-0.025,0.027,-0.035,67.0,59.0,60.0,12.8,1504.9,229.3,-0.1,-0.1,2393.0,13.34,0.036,317.2
13,2022-10-27T04:30:00,2400.0,42.79,6.0312,-0.036,0.036,-0.019,65.0,60.0,60.0,12.8,1504.9,237.1,-0.2,-0.2,2393.034,13.34,0.05,315.0
13,2022-10-27T05:00:00,2400.0,42.79,6.0312,-0.022,0.034,-0.014,69.0,61.0,63.0,12.8,1504.9,243.6,0.1,0.0,2393.067,13.34,0.04,327.1
13,2022-10-27T05:30:00,2400.0,42.79,6.0312,-0.041,0.042,-0.017,66.0,58.0,61.0,12.8,1504.9,249.3,-0.4,-0.1,2393.117,13.34,0.058,315.7
13,2022-10-27T06:00:00,2400.0,42.79,6.0312,-0.037,0.059,-0.026,72.0,62.0,64.0,12.8,1504.9,250.8,-0.3,0.0,2393.099,13.34,0.069,327.9
13,2022-10-27T06:30:00,2400.0,42.79,6.0312,-0.01,0.046,0.013,70.0,63.0,64.0,12.7,1504.9,256.7,-0.2,-0.1,2393.124,13.34,0.047,347.7
13,2022-10-27T07:00:00,2400.0,42.79,6.0312,-0.034,0.046,-0.013,66.0,60.0,62.0,12.8,1504.9,262.8,0.0,-0.1,2393.164,13.34,0.057,323.5
13,2022-10-27T07:30:00,2400.0,42.79,6.0312,-0.014,0.069,-0.006,69.0,61.0,65.0,12.7,1504.9,263.9,-0.4,0.0,2393.197,13.34,0.07,348.5
13,2022-10-27T08:00:00,2400.0,42.79,6.0312,-0.034,0.08,-0.006,67.0,60.0,64.0,12.7,1504.9,266.0,-0.1,0.0,2393.217,13.34,0.086,337.0
13,2022-10-27T08:30:00,2400.0,42.79,6.0312,-0.032,0.064,-0.013,67.0,61.0,63.0,12.7,1504.9,264.0,-0.4,0.0,2393.233,13.34,0.071,333.4
13,2022-10-27T09:00:00,2400.0,42.79,6.0312,-0.007,0.071,-0.01,68.0,61.0,63.0,12.8,1504.9,271.0,0.0,0.0,2393.181,13.34,0.071,354.4
13,2022-10-27T09:30:00,2400.0,42.79,6.0312,-0.01,0.073,-0.016,69.0,58.0,62.0,12.8,1504.9,273.1,0.0,0.0,2393.185,13.34,0.073,352.2
13,2022-10-27T10:00:00,2400.0,42.79,6.0312,-0.004,0.061,-0.027,66.0,60.0,60.0,12.7,1504.9,273.8,-0.1,-0.1,2393.155,13.34,0.061,356.3
13,2022-10-27T10:30:00,2400.0,42.79,6.0312,-0.022,0.072,-0.013,66.0,61.0,60.0,12.8,1504.9,271.9,-0.2,0.0,2393.173,13.34,0.075,343.0
13,2022-10-27T11:00:00,2400.0,42.79,6.0312,-0.002,0.056,0.013,63.0,57.0,58.0,12.7,1504.9,272.7,-0.4,0.0,2393.154,13.34,0.056,358.0
13,2022-10-27T11:30:00,2400.0,42.79,6.0312,0.007,0.046,-0.033,65.0,57.0,62.0,12.8,1504.9,272.5,-1.0,-0.1,2393.127,13.34,0.046,8.7
13,2022-10-27T12:00:00,2400.0,42.79,6.0312,0.007,0.044,-0.016,65.0,60.0,62.0,12.7,1504.9,271.7,0.1,0.0,2393.096,13.34,0.044,9.0
13,2022-10-27T13:00:00,2400.0,42.79,6.0312,0.008,0.048,0.029,66.0,60.0,60.0,12.8,1504.9,272.4,-0.2,0.0,2393.076,13.34,0.048,9.5
13,2022-10-27T13:30:00,2400.0,42.79,6.0312,-0.013,0.047,0.0,65.0,61.0,61.0,12.8,1504.9,269.4,-0.2,0.1,2393.061,13.34,0.048,344.5
13,2022-10-27T14:00:00,2400.0,42.79,6.0312,-0.013,0.053,0.01,67.0,60.0,63.0,12.8,1504.9,270.7,0.0,0.1,2393.032,13.34,0.054,346.2
13,2022-10-27T14:30:00,2400.0,42.79,6.0312,0.001,0.033,0.0,68.0,61.0,61.0,12.7,1504.9,273.3,-0.2,0.0,2393.036,13.34,0.033,1.7
13,2022-10-27T15:00:00,2400.0,42.79,6.0312,-0.019,0.04,-0.011,67.0,59.0,63.0,12.8,1504.9,270.1,-0.2,0.1,2393.0,13.34,0.044,334.6
13,2022-10-27T15:30:00,2400.0,42.79,6.0312,-0.034,0.055,0.012,65.0,59.0,61.0,12.7,1504.9,272.3,-0.2,0.2,2392.988,13.34,0.064,328.3
13,2022-10-27T16:00:00,2400.0,42.79,6.0312,-0.007,0.046,-0.032,67.0,60.0,61.0,12.7,1504.9,273.9,-0.3,0.0,2393.02,13.34,0.046,351.3
13,2022-10-27T16:30:00,2400.0,42.79,6.0312,0.009,0.05,-0.033,67.0,59.0,62.0,12.7,1504.9,271.4,-0.1,0.0,2393.077,13.34,0.05,10.2
13,2022-10-27T17:00:00,2400.0,42.79,6.0312,-0.014,0.048,-0.018,66.0,58.0,62.0,12.8,1504.9,272.4,-0.6,0.1,2393.085,13.34,0.05,343.7
13,2022-10-27T17:30:00,2400.0,42.79,6.0312,-0.027,0.043,-0.012,65.0,59.0,61.0,12.8,1504.9,274.1,0.1,-0.1,2393.151,13.34,0.05,327.9
13,2022-10-27T18:00:00,2400.0,42.79,6.0312,-0.018,0.048,-0.033,66.0,58.0,60.0,12.8,1504.9,274.5,0.0,0.1,2393.105,13.34,0.051,339.4
13,2022-10-27T18:30:00,2400.0,42.79,6.0312,-0.027,0.059,-0.02,66.0,59.0,62.0,12.8,1504.9,273.1,-0.2,0.0,2393.153,13.34,0.064,335.4
13,2022-10-27T19:00:00,2400.0,42.79,6.0312,-0.012,0.053,-0.012,65.0,60.0,62.0,12.7,1504.9,274.2,-0.6,0.0,2393.163,13.34,0.054,347.2
13,2022-10-27T19:30:00,2400.0,42.79,6.0312,-0.023,0.062,-0.035,67.0,60.0,62.0,12.8,1504.9,275.8,0.0,0.0,2393.197,13.34,0.066,339.6
13,2022-10-27T20:00:00,2400.0,42.79,6.0312,-0.016,0.049,0.022,66.0,58.0,60.0,12.8,1504.9,273.7,-0.3,0.0,2393.183,13.34,0.051,341.9
13,2022-10-27T20:30:00,2400.0,42.79,6.0312,-0.031,0.049,-0.031,65.0,58.0,59.0,12.8,1504.9,276.5,-0.5,-0.1,2393.2,13.34,0.057,327.7
13,2022-10-27T21:00:00,2400.0,42.79,6.0312,-0.009,0.062,0.019,69.0,61.0,63.0,12.8,1504.9,275.3,0.1,0.1,2393.192,13.34,0.062,351.7
13,2022-10-27T21:30:00,2400.0,42.79,6.0312,-0.024,0.07,-0.012,66.0,59.0,64.0,12.8,1504.9,275.3,-0.4,0.1,2393.169,13.34,0.073,341.1
13,2022-10-27T22:00:00,2400.0,42.79,6.0312,-0.026,0.062,-0.01,65.0,58.0,62.0,12.7,1504.9,275.1,0.1,0.0,2393.154,13.34,0.067,337.3
13,2022-10-27T22:30:00,2400.0,42.79,6.0312,-0.029,0.068,0.011,66.0,58.0,58.0,12.8,1504.9,275.0,0.0,0.0,2393.097,13.34,0.073,336.9
13,2022-10-27T23:00:00,2400.0,42.79,6.0312,-0.02,0.065,0.003,66.0,61.0,61.0,12.7,1504.9,276.8,-0.4,0.0,2393.077,13.34,0.068,342.9
